Tracking 31027 objects as of 19-Jul-2025
HD Live streaming from Space Station
objects crossing your sky now

FENGYUN 2H DEB

Track FENGYUN 2H DEB now!


NORAD ID: 43645
Int'l Code: 2018-050D
Perigee: 35,639.3 km
Apogee: 35,977.6 km
Inclination: 4.0 °
Period: 1,436.8 minutes
Semi major axis: 42179 km
RCS: Unknown
Launch date: June 5, 2018
Source: People's Republic of China (PRC)
Launch site: Xichang Space Center, China (XSC)

Note: This is SATELLITE DEBRIS
Your satellite tracking list
FENGYUN 1C DEB
Track 1 satellite(s)




NASA's NSSDC Master Catalog

Two Line Element Set (TLE):
1 43645U 18050D   25198.19985323 -.00000050  00000-0  00000-0 0  9997
2 43645   4.0362  80.5839 0040103 260.8854  98.5669  1.00219276 25562
Source of the keplerian elements: AFSPC